Temp
63 63 63 63 63 62 62 62 62 62 62 62 62 62 62 62 62 58 55 64 67 69 66 65 64 63 62 58 59 56 45 42 47 50 50 58 55 60 60 56 60 64 62 65 65
63 63 63 63 63 62 62 62 62 61 62 62 62 62 62 62 56 55 66 69 68 68 64 63 61 61 55 57 56 49 42 49 54 50 49 55 53 54 56 54 55 58 60 61 62
62 62 63 63 62 62 62 62 61 61 61 61 61 61 61 59 52 56 68 68 67 67 64 65 65 63 53 56 54 52 45 52 54 54 54 54 54 55 52 52 57 57 59 59 58
60 61 62 62 62 62 62 62 61 61 61 61 61 61 61 56 46 59 67 67 67 64 62 62 61 56 52 52 58 48 56 55 58 55 54 52 55 54 55 57 62 60 61 60 58
59 59 61 61 62 62 62 62 61 61 61 61 61 61 56 50 53 63 65 65 63 62 59 59 57 56 52 55 55 52 54 57 58 55 54 55 52 51 52 58 61 63 63 59 58
59 58 59 61 61 62 62 62 61 61 61 61 61 61 52 46 63 64 63 61 62 60 58 59 57 59 56 55 54 54 54 55 57 56 55 52 49 50 55 57 57 61 61 59 60
58 58 58 60 60 61 61 61 61 61 61 61 61 59 52 52 64 63 63 61 63 61 57 60 60 56 56 52 56 55 51 53 55 54 54 50 50 48 58 58 58 60 60 60 60
58 57 57 57 59 60 60 60 60 60 60 61 61 54 47 61 59 63 63 61 63 64 62 63 62 57 54 54 53 48 47 43 51 54 51 51 47 55 57 53 58 58 56 59 60
57 57 57 58 58 58 59 60 59 60 60 61 53 49 47 61 57 62 63 59 60 61 62 67 59 52 52 46 43 44 39 42 48 53 50 48 47 55 55 54 56 56 58 57 57
57 57 57 57 57 58 58 58 58 58 59 61 60 47 52 51 57 60 62 61 57 56 55 54 51 44 43 42 35 39 39 45 44 49 47 44 46 53 57 56 54 53 52 51 54
57 57 57 56 57 58 56 51 48 47 52 48 49 50 53 57 60 56 60 58 56 51 43 48 42 38 44 46 48 47 43 41 45 49 45 45 47 52 55 53 53 52 50 49 51
57 57 56 56 56 58 54 48 51 52 44 52 54 54 57 57 50 54 60 51 49 42 47 43 38 48 51 50 48 45 42 43 46 49 46 45 48 55 54 51 52 52 48 48 49
57 56 56 56 56 54 52 52 53 54 44 47 52 53 53 55 51 49 54 51 46 44 43 39 46 51 49 48 46 44 42 43 44 46 46 42 44 50 53 53 52 51 49 48 48
56 56 56 55 50 54 50 51 53 54 38 40 44 50 54 54 48 57 56 52 47 43 44 43 48 48 46 46 48 41 47 48 45 41 37 43 35 46 50 49 50 50 48 47 48
55 56 56 55 48 48 52 55 53 51 25 43 44 57 54 50 48 48 54 51 44 44 44 39 42 43 42 44 49 43 46 46 43 37 34 37 35 44 49 48 48 48 50 48 49
55 55 55 49 49 50 54 55 51 35 26 37 45 43 44 47 46 47 49 51 51 45 43 40 45 44 44 44 46 48 44 41 38 34 21 35 36 39 43 46 47 48 49 50 48
54 54 53 50 43 52 52 49 33 28 39 33 35 43 43 42 41 44 42 40 36 31 30 39 39 42 46 41 45 43 36 21 20 16 23 35 33 40 45 47 48 50 49 49 48
54 54 52 50 50 50 48 40 27 33 32 42 41 41 37 43 42 42 40 37 43 39 28 28 26 39 44 41 38 37 37 26 22 22 27 33 31 41 45 48 50 50 49 49 48
53 48 46 48 48 48 39 30 32 36 41 39 40 33 34 41 40 38 37 37 42 42 34 30 31 39 41 42 42 37 32 40 28 20 26 32 37 44 45 46 47 48 49 47 48
43 43 44 49 48 43 33 32 32 42 44 43 33 36 30 36 35 38 36 43 43 47 46 40 29 32 38 41 40 38 42 32 28 21 22 26 32 37 39 41 44 44 44 45 47
41 35 44 50 47 36 26 30 37 44 45 39 36 36 38 36 38 36 36 43 48 46 48 39 36 29 35 32 34 34 31 36 37 32 25 22 31 42 43 44 43 43 45 44 46
38 29 44 48 33 32 27 34 42 43 44 43 42 42 39 39 37 37 37 42 51 48 41 43 35 27 30 36 39 36 37 38 30 27 28 29 31 46 44 44 45 44 46 45 46
32 33 45 44 27 27 31 36 41 40 40 38 39 43 45 40 35 40 42 45 46 47 42 43 31 24 26 33 33 32 37 40 39 33 26 28 30 44 45 44 45 45 45 46 46
31 27 34 37 36 30 28 32 33 41 41 40 41 43 42 39 42 38 37 40 43 45 46 45 32 31 31 32 34 28 33 39 37 28 29 29 31 39 39 40 42 42 43 43 42
31 29 32 28 30 32 33 35 32 33 42 43 38 37 37 32 33 35 36 37 41 44 43 43 29 26 27 32 35 32 32 35 29 38 32 33 32 42 41 40 40 44 45 44 36
30 30 33 31 35 31 33 31 33 36 37 36 39 41 40 33 38 32 35 35 36 39 41 42 27 27 25 28 30 29 33 33 30 27 27 28 31 44 45 43 42 44 44 43 43
33 36 35 34 31 28 29 33 37 41 42 41 43 42 40 44 44 46 46 44 42 40 37 37 30 28 25 22 25 24 29 31 33 34 39 30 40 44 41 43 42 43 43 42 42
MSLP
1015.67 1015.67 1015.94 1016.07 1016.02 1016.00 1016.15 1016.28 1016.27 1016.11 1016.30 1016.19 1015.98 1015.73 1015.64 1015.35 1015.09 1014.96 1014.34 1013.19 1013.18 1013.32 1013.49 1013.34 1013.29 1013.17 1013.16 1013.24 1013.28 1013.57 1014.55 1014.32 1012.96 1012.14 1011.72 1011.17 1010.99 1010.70 1010.53 1010.53 1010.38 1010.30 1010.57 1011.05 1011.93
1015.31 1015.50 1015.57 1015.82 1015.89 1015.87 1015.96 1016.14 1016.22 1016.04 1016.04 1016.08 1016.02 1015.74 1015.56 1015.47 1015.16 1014.39 1013.04 1012.79 1012.96 1013.31 1013.55 1013.51 1013.43 1013.37 1013.52 1013.32 1013.57 1014.03 1014.40 1013.39 1012.35 1012.07 1012.00 1011.79 1011.57 1011.46 1011.16 1011.00 1010.68 1010.58 1011.18 1011.64 1012.12
1015.16 1015.11 1015.38 1015.43 1015.59 1015.65 1015.83 1015.99 1016.05 1016.07 1015.78 1015.98 1015.90 1015.76 1015.56 1015.51 1015.19 1013.22 1012.56 1012.83 1012.94 1013.26 1013.54 1013.55 1013.31 1013.38 1013.56 1013.25 1013.43 1013.66 1013.65 1012.88 1012.46 1012.22 1012.14 1012.09 1012.02 1011.77 1011.51 1011.28 1010.74 1010.81 1011.48 1012.19 1012.54
1015.20 1014.87 1015.10 1015.18 1015.33 1015.50 1015.50 1015.78 1015.90 1015.94 1015.76 1015.72 1015.76 1015.72 1015.49 1015.63 1014.77 1012.98 1012.85 1012.95 1013.12 1013.23 1013.50 1013.28 1013.30 1013.65 1013.47 1013.35 1012.99 1013.35 1012.94 1012.77 1012.45 1012.44 1012.33 1012.52 1012.49 1012.21 1011.82 1010.83 1010.34 1010.47 1011.07 1011.82 1012.47
1015.17 1015.02 1014.59 1014.81 1015.19 1015.24 1015.39 1015.44 1015.74 1015.73 1015.81 1015.63 1015.59 1015.62 1015.58 1015.36 1013.75 1012.97 1012.96 1013.18 1013.41 1013.46 1013.32 1013.37 1013.29 1013.40 1013.37 1013.02 1013.04 1013.09 1012.93 1012.55 1012.39 1012.50 1012.52 1012.48 1012.62 1012.79 1011.52 1010.59 1010.34 1010.54 1010.86 1011.47 1011.77
1015.19 1014.80 1014.51 1014.41 1014.80 1014.90 1015.26 1015.24 1015.51 1015.62 1015.64 1015.70 1015.48 1015.55 1015.70 1014.76 1012.91 1012.99 1013.11 1013.34 1013.47 1013.49 1013.42 1013.13 1013.19 1013.07 1013.15 1012.96 1012.94 1013.08 1013.03 1012.76 1012.39 1012.37 1012.48 1012.70 1012.62 1012.65 1010.71 1010.04 1010.11 1010.14 1010.48 1010.94 1011.29
1015.02 1014.66 1014.67 1014.14 1014.43 1014.63 1014.85 1015.24 1015.32 1015.56 1015.57 1015.57 1015.49 1015.38 1015.19 1013.56 1012.68 1012.98 1013.18 1013.21 1013.12 1013.33 1013.36 1013.15 1012.86 1013.15 1012.99 1013.09 1013.24 1013.09 1013.28 1012.80 1012.06 1012.09 1012.58 1012.69 1012.23 1011.83 1010.18 1010.26 1010.15 1010.03 1010.13 1010.47 1010.92
1015.05 1014.86 1014.65 1014.27 1013.92 1014.25 1014.49 1014.94 1015.23 1015.48 1015.48 1015.45 1015.39 1015.46 1014.28 1012.86 1012.83 1012.96 1013.12 1013.10 1013.06 1013.15 1013.16 1013.01 1013.00 1013.19 1013.33 1013.39 1013.33 1013.52 1013.38 1012.98 1012.23 1012.18 1012.64 1012.64 1011.86 1010.54 1009.80 1010.25 1010.34 1010.02 1010.13 1010.18 1010.40
1014.89 1014.63 1014.59 1014.32 1013.60 1013.82 1014.56 1014.66 1015.04 1015.23 1015.31 1015.43 1015.41 1015.35 1013.82 1012.93 1012.93 1012.79 1012.91 1013.08 1013.16 1013.20 1013.06 1013.06 1013.34 1013.63 1013.76 1013.95 1013.88 1013.71 1013.58 1013.01 1012.44 1012.34 1012.53 1012.75 1011.72 1010.45 1010.01 1010.08 1010.34 1010.25 1010.13 1010.13 1010.39
1014.23 1014.24 1014.40 1013.98 1013.54 1013.42 1014.15 1014.67 1014.76 1015.18 1015.12 1015.18 1015.02 1015.16 1013.55 1012.56 1012.41 1012.64 1012.71 1013.06 1013.28 1013.54 1013.67 1013.73 1013.94 1014.15 1014.24 1014.32 1013.97 1013.50 1013.46 1012.83 1012.37 1012.44 1012.50 1012.66 1011.62 1010.43 1009.94 1010.25 1009.93 1010.32 1010.31 1010.33 1010.43
1013.85 1013.83 1014.04 1013.85 1013.37 1013.17 1013.99 1014.96 1015.31 1015.28 1014.82 1013.82 1013.55 1013.00 1012.47 1012.41 1012.31 1012.70 1012.60 1013.08 1013.37 1013.92 1014.02 1014.04 1014.45 1013.90 1013.25 1013.28 1013.04 1012.96 1012.94 1012.88 1012.39 1012.39 1012.50 1012.21 1011.35 1010.17 1009.46 1009.68 1009.55 1010.06 1010.76 1010.94 1011.18
1013.44 1013.58 1013.61 1013.50 1013.21 1012.88 1013.34 1013.78 1012.93 1012.31 1013.96 1013.15 1012.70 1012.82 1012.50 1012.36 1012.59 1012.67 1012.62 1013.06 1013.48 1013.77 1014.01 1014.48 1013.87 1013.05 1013.20 1013.21 1013.14 1013.23 1013.08 1012.91 1012.55 1012.53 1012.59 1012.22 1011.16 1009.36 1008.92 1008.86 1009.00 1009.63 1010.94 1011.23 1011.64
1012.72 1013.11 1013.20 1013.25 1012.87 1012.56 1012.17 1012.70 1012.96 1012.75 1013.08 1012.28 1011.67 1011.80 1012.05 1012.37 1012.04 1012.10 1012.52 1012.64 1013.06 1013.51 1013.69 1013.84 1012.92 1012.39 1012.97 1013.05 1013.21 1013.25 1013.17 1013.12 1013.22 1013.06 1012.79 1012.72 1011.37 1009.71 1008.77 1008.74 1009.31 1010.12 1010.99 1011.65 1011.88
1012.16 1012.60 1012.83 1013.03 1013.28 1011.79 1011.55 1012.66 1013.12 1012.85 1012.93 1011.94 1011.43 1010.28 1011.00 1011.86 1011.87 1011.29 1011.83 1012.12 1012.62 1013.06 1013.75 1013.72 1012.76 1012.60 1012.79 1013.05 1012.95 1013.30 1013.07 1013.32 1013.79 1014.14 1014.25 1013.32 1012.50 1010.06 1009.27 1009.33 1009.75 1010.49 1011.38 1012.32 1012.81
1011.51 1011.68 1012.19 1012.65 1012.19 1011.64 1011.40 1011.63 1012.70 1013.16 1012.27 1010.99 1010.58 1010.04 1010.16 1011.10 1011.14 1011.64 1011.70 1011.85 1012.15 1012.36 1013.26 1013.12 1013.08 1012.92 1013.03 1013.06 1013.10 1013.50 1013.58 1014.00 1014.61 1015.22 1015.34 1014.42 1013.98 1010.62 1009.78 1009.90 1010.17 1010.88 1011.39 1012.19 1013.07
1010.80 1011.00 1011.60 1012.21 1012.03 1011.41 1011.33 1011.81 1012.11 1013.03 1010.62 1010.09 1010.28 1010.20 1010.61 1011.15 1011.56 1011.85 1011.80 1011.88 1011.89 1012.58 1013.09 1013.59 1013.43 1013.19 1013.17 1013.47 1013.41 1013.95 1014.59 1015.42 1016.20 1016.84 1016.77 1014.86 1013.98 1011.78 1010.46 1010.19 1010.31 1010.94 1011.63 1012.09 1013.09
1010.04 1010.40 1010.70 1011.13 1011.20 1010.76 1011.13 1010.66 1011.64 1010.20 1010.62 1010.30 1010.20 1009.88 1010.22 1010.87 1011.80 1011.63 1011.50 1011.74 1011.57 1012.95 1013.51 1013.98 1014.09 1013.87 1013.56 1013.89 1014.24 1014.51 1015.49 1017.32 1018.25 1018.48 1017.18 1015.42 1014.57 1011.82 1010.77 1010.37 1010.49 1010.95 1011.67 1012.36 1012.89
1009.30 1009.66 1009.68 1009.99 1010.16 1010.40 1010.65 1010.32 1008.16 1007.74 1008.92 1008.32 1009.02 1009.38 1009.81 1010.66 1011.29 1011.38 1011.26 1011.55 1011.35 1011.67 1012.94 1013.72 1014.95 1014.15 1013.72 1013.62 1013.91 1014.88 1015.32 1016.52 1017.36 1018.11 1017.01 1015.86 1014.24 1011.74 1011.27 1010.89 1010.88 1010.97 1011.68 1012.47 1013.09
1008.57 1008.78 1008.88 1009.30 1009.75 1010.49 1010.24 1007.48 1006.67 1006.20 1006.57 1007.11 1008.45 1008.97 1010.14 1010.56 1010.74 1011.54 1011.43 1010.91 1010.55 1010.84 1011.39 1012.72 1014.12 1014.44 1014.21 1014.19 1014.19 1015.08 1015.18 1015.43 1016.61 1017.89 1016.80 1015.16 1013.52 1012.25 1011.76 1011.70 1011.86 1011.76 1011.97 1012.60 1013.12
1007.90 1008.03 1007.52 1008.48 1009.63 1010.60 1009.99 1007.16 1006.20 1005.57 1005.47 1006.10 1006.76 1007.68 1008.07 1009.32 1009.82 1010.09 1010.55 1009.46 1009.76 1009.75 1010.10 1011.45 1013.73 1015.14 1014.87 1014.75 1014.63 1014.43 1014.46 1015.41 1016.17 1016.87 1016.44 1014.82 1013.62 1012.32 1012.43 1012.43 1012.51 1012.63 1012.47 1012.45 1012.94
1007.36 1006.81 1005.99 1007.37 1008.72 1009.55 1008.12 1006.79 1006.07 1005.59 1004.89 1005.50 1005.38 1006.35 1006.68 1007.49 1008.17 1008.71 1008.52 1008.14 1008.26 1008.98 1009.75 1011.31 1012.93 1015.67 1015.43 1015.02 1014.53 1014.88 1014.41 1014.62 1014.76 1015.25 1015.36 1014.93 1013.26 1011.86 1012.31 1012.53 1012.66 1012.89 1012.85 1012.80 1013.06
1005.98 1005.96 1005.12 1006.17 1006.51 1006.43 1006.69 1006.35 1005.45 1004.96 1005.33 1005.07 1004.99 1005.29 1005.67 1006.08 1007.15 1007.65 1007.74 1007.18 1007.14 1007.88 1009.69 1011.19 1012.85 1014.94 1015.19 1014.92 1014.68 1014.39 1014.03 1013.93 1014.22 1015.24 1015.21 1014.56 1013.50 1012.21 1012.45 1012.69 1012.59 1012.97 1012.97 1012.99 1013.03
1004.29 1005.15 1004.52 1004.64 1003.95 1004.67 1005.12 1005.58 1005.17 1004.79 1004.83 1005.03 1004.77 1004.18 1004.27 1005.30 1006.87 1006.42 1007.25 1007.19 1007.32 1007.65 1008.69 1010.40 1012.32 1014.63 1015.68 1015.61 1015.12 1014.63 1014.12 1013.65 1013.77 1014.35 1014.80 1014.69 1013.63 1012.83 1012.85 1012.97 1012.86 1012.89 1013.05 1013.34 1013.68
1003.92 1004.21 1003.39 1003.11 1003.17 1004.01 1004.32 1004.04 1004.33 1004.02 1003.78 1004.51 1004.20 1003.89 1004.00 1005.08 1005.57 1006.19 1007.54 1007.84 1007.59 1007.71 1008.32 1009.07 1010.91 1012.13 1012.68 1012.64 1012.99 1014.27 1013.68 1013.65 1013.93 1014.64 1014.55 1013.90 1013.37 1013.13 1013.15 1013.10 1013.16 1013.18 1013.31 1013.76 1014.24
1002.47 1002.01 1001.21 1001.13 1001.94 1002.75 1003.15 1002.85 1003.14 1003.46 1003.48 1003.63 1003.99 1004.11 1003.67 1004.78 1005.40 1006.34 1007.48 1008.20 1008.18 1008.20 1008.63 1009.23 1010.78 1012.25 1012.97 1012.81 1012.62 1012.71 1012.83 1013.08 1013.40 1013.45 1013.75 1013.53 1013.12 1012.25 1012.63 1013.16 1013.40 1013.47 1013.70 1014.19 1014.61
1000.49 1000.93 1000.82 1000.62 1000.91 1001.09 1001.39 1001.46 1001.77 1002.22 1002.57 1002.23 1002.17 1002.88 1003.44 1003.36 1003.81 1005.00 1006.11 1006.86 1007.38 1008.72 1008.84 1009.40 1011.33 1012.41 1013.66 1013.54 1013.15 1013.04 1012.74 1012.63 1012.88 1013.09 1013.10 1013.05 1012.56 1011.75 1012.08 1012.80 1013.44 1013.76 1014.09 1014.66 1015.14
1000.57 1000.95 1000.63 1000.06 1000.57 1000.94 1000.36 999.74 1000.31 1001.16 1001.42 1001.69 1001.25 1001.89 1002.43 1002.36 1003.46 1004.11 1005.13 1005.65 1005.81 1007.02 1008.17 1009.09 1010.74 1012.66 1014.33 1014.46 1013.94 1013.17 1011.85 1012.05 1012.23 1012.17 1012.09 1012.44 1011.40 1011.76 1012.53 1012.95 1013.28 1013.84 1014.32 1014.94 1015.41
Wind_Speed
9 8 8 8 6 5 6 6 5 4 7 7 8 7 7 6 8 2 5 6 5 5 1 2 2 3 1 1 2 3 4 3 4 3 1 5 4 4 2 1 2 2 4 7 10
9 9 9 9 8 6 6 6 6 4 5 7 8 8 7 7 2 7 7 6 5 4 1 5 4 4 1 3 1 4 4 6 1 1 0 4 3 4 3 4 4 3 6 6 9
10 10 10 9 8 7 7 6 6 6 4 6 7 8 7 4 3 5 6 9 7 5 2 3 3 5 2 4 4 5 6 2 0 3 1 3 6 3 3 5 9 4 6 7 5
13 11 11 10 10 9 7 7 6 6 5 4 6 7 5 2 4 1 6 7 7 4 2 1 1 5 4 5 5 2 7 4 2 1 2 3 6 7 7 10 5 6 3 10 10
15 15 11 10 11 9 8 7 7 6 6 5 5 6 3 2 8 4 8 6 4 5 4 4 4 3 4 5 4 5 5 4 6 3 5 2 7 7 11 13 10 9 4 11 10
12 16 17 12 12 10 9 7 7 6 6 6 4 4 1 4 3 7 7 5 3 3 4 5 4 3 3 3 4 0 3 7 7 5 3 4 5 3 9 7 7 6 6 9 9
14 13 17 12 12 10 8 8 6 6 5 6 6 2 3 11 3 7 7 5 3 3 3 3 2 1 2 1 3 1 4 7 6 5 5 2 7 9 14 7 7 5 6 8 10
13 12 15 20 13 11 9 7 5 4 5 6 5 3 7 1 1 7 5 2 3 4 2 4 3 1 1 1 1 2 2 3 1 4 1 2 9 4 2 5 7 8 8 8 9
13 12 12 11 12 11 11 7 5 4 5 5 1 2 8 1 4 5 5 5 3 1 1 3 2 3 2 2 3 1 3 4 2 4 3 3 7 6 1 3 9 8 8 8 7
12 11 12 12 15 15 11 9 4 2 3 4 5 1 4 6 4 6 5 7 3 5 3 2 2 3 1 4 6 6 4 5 4 4 3 4 13 15 16 8 12 10 8 1 7
13 13 12 12 12 16 14 4 5 1 4 9 6 4 4 3 4 2 4 6 5 2 5 4 4 10 13 10 5 4 2 2 0 2 3 6 10 16 10 8 11 7 8 7 8
13 13 11 12 13 10 9 5 4 9 5 15 13 9 3 4 4 6 6 7 7 6 6 4 10 9 9 7 7 4 2 4 3 3 1 6 15 18 12 6 7 8 8 9 7
14 12 11 10 13 9 13 9 5 2 2 5 5 9 5 5 6 13 12 6 5 7 9 8 4 11 7 6 8 5 5 4 3 2 3 4 10 5 3 5 7 6 5 5 10
17 13 11 7 5 3 10 13 6 1 3 6 7 8 9 4 6 8 10 5 6 10 7 5 4 6 5 5 5 4 4 5 3 3 4 3 6 7 2 2 3 6 6 6 6
19 16 14 12 4 3 7 13 11 4 7 4 7 1 7 9 8 4 1 1 7 8 9 8 6 6 4 4 6 5 1 6 3 3 3 3 3 10 2 4 1 4 6 7 7
16 19 16 6 3 5 11 15 5 9 9 5 4 7 9 3 2 3 5 1 3 4 5 2 2 0 4 3 4 7 6 9 6 4 2 7 7 7 2 1 2 3 6 8 8
18 21 16 5 4 3 7 9 10 14 5 8 8 10 13 13 6 5 13 8 9 7 5 2 1 0 2 7 6 4 6 4 5 4 7 4 3 9 3 1 1 6 7 7 8
19 20 17 9 7 4 9 10 11 9 10 5 9 12 12 10 4 6 13 12 9 3 6 8 3 9 4 5 8 6 6 7 9 5 4 4 7 6 1 3 4 6 7 6 7
19 10 8 9 6 4 4 13 14 10 13 13 10 6 6 9 9 10 9 9 10 10 8 7 3 3 4 2 4 7 5 5 7 2 4 5 4 3 4 6 6 6 6 6 6
7 9 12 13 10 4 8 18 6 4 8 10 10 7 14 21 9 16 17 16 8 14 2 5 5 3 2 1 1 2 3 4 3 4 3 4 4 5 3 4 4 5 5 2 5
6 7 5 17 12 8 16 10 13 5 4 13 7 8 8 14 13 11 14 6 18 14 7 5 5 3 1 6 8 3 2 2 4 4 6 2 6 4 8 7 7 4 3 4 2
7 11 8 17 13 8 15 18 9 19 5 3 5 6 12 16 14 11 13 5 15 15 17 7 5 4 6 2 1 0 5 5 6 5 1 3 5 5 8 7 7 3 3 3 3
6 4 9 18 13 10 12 10 11 18 12 9 6 5 6 13 9 11 7 4 8 16 23 12 5 5 3 4 3 4 5 4 4 3 6 6 6 3 6 5 3 3 4 4 5
5 8 7 12 8 16 20 23 13 9 15 8 7 3 6 12 4 13 6 1 3 5 7 6 5 6 10 6 9 7 8 7 5 4 5 6 5 7 8 7 3 1 3 4 6
8 6 7 10 14 19 23 23 28 13 13 22 13 8 8 6 4 6 6 4 5 6 4 5 5 4 3 3 5 5 9 17 11 11 8 6 7 10 9 8 6 4 2 5 6
6 5 4 4 20 23 28 25 30 30 15 13 17 23 21 10 12 16 10 6 8 3 6 3 3 4 3 4 4 3 4 10 6 3 2 3 4 5 6 8 6 5 5 5 5
4 3 3 10 16 16 19 27 26 25 24 16 27 19 17 14 7 11 3 8 12 14 6 7 7 4 2 2 2 5 10 9 6 5 12 8 9 7 7 9 8 7 7 5 4
Wind_Direction
255 253 264 266 269 273 286 293 299 317 317 320 322 324 319 319 308 232 236 203 175 158 219 272 227 250 340 220 68 53 62 256 262 3 88 355 48 334 295 280 310 249 172 163 147
247 250 249 255 261 265 270 282 292 303 316 319 322 325 323 325 275 248 238 160 149 162 192 176 187 190 104 184 130 111 138 226 280 86 316 326 49 322 340 319 269 279 45 111 135
243 239 246 247 250 252 263 271 280 289 305 315 320 322 324 323 305 246 159 154 146 159 251 294 269 165 202 142 187 195 199 219 19 152 53 324 317 298 226 256 226 176 163 171 158
352 246 235 238 243 246 246 263 271 283 293 310 317 321 328 279 235 146 156 141 144 158 299 221 184 162 195 196 202 211 240 270 259 101 29 310 317 299 232 230 220 234 195 172 173
347 335 229 228 231 238 242 245 262 272 288 299 314 327 344 253 256 162 138 139 140 141 174 184 157 182 205 203 189 186 262 292 311 263 240 245 254 248 264 262 263 275 221 190 190
340 357 335 215 224 223 238 237 249 262 279 293 303 331 255 249 108 143 148 145 204 180 200 180 191 189 278 288 149 295 298 283 277 262 237 234 264 40 267 272 236 211 215 209 193
331 340 332 231 216 215 221 238 241 257 273 289 297 242 274 241 160 158 154 186 183 194 169 240 122 172 197 298 335 359 314 296 251 224 219 89 290 223 251 268 291 250 231 192 212
313 319 329 340 204 207 199 207 222 251 272 277 288 254 243 294 285 149 199 131 177 227 229 207 57 110 90 229 352 267 171 331 215 145 152 112 268 284 278 179 248 240 243 222 208
289 312 319 306 222 194 205 183 188 226 248 273 208 211 261 10 167 197 164 157 154 230 48 102 92 160 73 109 17 266 233 198 251 213 120 182 274 275 60 209 257 256 250 221 212
277 291 306 322 340 187 181 159 153 257 228 222 269 332 210 218 175 162 176 155 140 123 73 129 114 122 96 132 206 188 218 250 224 204 181 219 259 270 276 264 257 251 262 211 167
270 275 296 311 308 191 156 125 140 84 244 201 183 244 110 77 71 163 162 144 109 148 158 212 139 205 198 193 152 99 169 307 94 248 240 248 276 276 275 248 265 259 152 113 90
244 260 276 301 310 226 159 223 217 141 235 239 241 255 151 206 130 195 149 152 153 180 143 88 230 209 195 205 227 261 201 255 283 178 227 309 292 286 284 247 246 172 152 136 115
228 238 258 280 316 269 184 201 115 144 203 265 184 206 187 178 209 188 159 175 155 174 179 170 231 185 189 185 185 194 176 207 214 314 270 16 292 312 6 92 67 64 125 120 141
232 217 230 266 306 220 200 144 163 317 269 234 216 224 158 189 241 161 184 150 187 189 162 243 247 144 153 192 138 178 213 185 131 72 234 122 279 307 269 100 100 114 124 146 146
238 212 220 207 324 254 139 146 139 71 248 138 154 71 148 175 129 224 153 90 170 170 133 230 176 152 139 185 153 210 47 136 119 140 43 287 95 267 235 46 167 188 145 162 174
251 213 207 234 214 237 176 145 97 213 231 166 138 175 150 172 85 131 144 9 141 111 62 141 268 142 138 88 140 146 73 40 48 72 16 232 159 278 276 160 95 116 158 155 163
246 222 194 178 209 190 187 169 190 204 143 190 196 169 178 168 160 198 169 176 159 121 174 107 190 134 150 85 18 87 91 17 2 8 219 318 124 250 268 226 131 195 170 163 151
246 235 212 198 219 131 202 194 238 158 192 164 154 148 169 156 188 191 160 187 239 127 125 149 247 176 195 174 172 171 159 158 197 193 231 349 226 259 3 325 102 82 151 152 154
242 239 206 203 166 161 239 225 187 187 171 147 117 116 176 195 150 167 205 204 206 183 150 142 189 355 46 43 129 185 178 171 104 37 67 210 266 290 44 47 43 79 134 174 180
229 232 224 168 163 158 242 247 200 220 146 153 156 183 164 186 156 188 175 196 209 195 125 172 98 336 7 216 43 150 172 100 343 140 226 286 231 224 153 113 77 54 57 144 187
207 235 191 172 159 198 221 226 209 253 162 166 202 154 175 170 179 192 192 213 189 182 113 116 103 291 48 208 177 149 176 214 125 152 164 176 254 217 161 160 134 109 73 51 180
214 227 178 163 189 181 199 211 236 216 235 202 152 155 181 168 174 182 206 211 193 151 178 177 99 155 203 256 359 14 195 171 137 241 242 142 264 142 146 147 129 109 25 358 43
198 219 195 176 202 183 186 200 224 210 213 182 223 193 166 164 168 171 180 219 173 166 165 167 171 110 35 340 358 211 207 204 125 86 194 142 242 170 134 132 111 42 17 16 17
159 193 221 193 185 178 188 204 209 232 198 199 223 214 129 162 132 170 135 291 133 119 133 116 145 173 197 179 143 182 194 190 142 141 176 214 166 190 184 154 162 52 3 54 43
183 215 235 175 188 189 193 204 201 213 221 188 184 197 147 139 80 140 136 134 22 130 97 148 138 102 344 35 122 150 175 183 187 191 175 208 184 207 187 178 189 178 61 58 23
173 176 195 156 193 191 190 209 204 202 197 204 203 185 184 153 179 184 139 161 165 211 146 161 129 116 13 0 53 128 203 198 196 169 103 94 276 208 125 123 150 155 105 68 41
180 197 200 208 186 198 205 194 199 196 209 197 204 192 201 202 138 156 144 169 157 156 150 132 131 121 214 351 55 323 203 180 174 191 197 182 212 160 144 151 161 146 128 117 69